This is the latest recevied weather packets stored in our database for station/object WC4PEM-14. If no packets are shown the sender has not sent any weather packets the latest 1 day(s).
| Time | Temp. | Humidity | Pressure | Rain* | Wind** | Luminosity | Snow |
|---|---|---|---|---|---|---|---|
| 1777979207 | 18.33° C | 89% | 1014.5 hPa | 0 mm | 0.89 m/s, 99° | - | - |
| 1777978986 | 18.33° C | 89% | 1014.5 hPa | 0 mm | 0.89 m/s, 99° | - | - |
| 1777978686 | 18.33° C | 89% | 1014.5 hPa | 0 mm | 0.89 m/s, 93° | - | - |
| 1777978505 | 18.33° C | 89% | 1014.4 hPa | 0 mm | 0.89 m/s, 93° | - | - |
| 1777978386 | 18.33° C | 89% | 1014.4 hPa | 0 mm | 0.89 m/s, 93° | - | - |
| 1777978086 | 18.33° C | 88% | 1014.5 hPa | 0 mm | 0.89 m/s, 93° | - | - |
| 1777977786 | 18.33° C | 88% | 1014.5 hPa | 0 mm | 0.45 m/s, 93° | - | - |
| 1777977514 | 18.33° C | 88% | 1014.4 hPa | 0 mm | 0.89 m/s, 93° | - | - |
| 1777977486 | 18.33° C | 88% | 1014.4 hPa | 0 mm | 0.89 m/s, 105° | - | - |
| 1777977186 | 18.33° C | 88% | 1014.4 hPa | 0 mm | 0.89 m/s, 93° | - | - |
| 1777976886 | 18.33° C | 88% | 1014.4 hPa | 0 mm | 0.45 m/s, 105° | - | - |
| 1777976586 | 18.33° C | 88% | 1014.4 hPa | 0 mm | 0.45 m/s, 107° | - | - |
| 1777976548 | 18.33° C | 88% | 1014.3 hPa | 0 mm | 0.45 m/s, 103° | - | - |
| 1777976413 | 18.33° C | 88% | 1014.5 hPa | 0 mm | 0.45 m/s, 93° | - | - |
| 1777976286 | 18.33° C | 88% | 1014.3 hPa | 0 mm | 0.45 m/s, 103° | - | - |
| 1777975986 | 18.33° C | 88% | 1014.5 hPa | 0 mm | 0.45 m/s, 93° | - | - |
| 1777975686 | 18.33° C | 88% | 1014.5 hPa | 0 mm | 0.45 m/s, 93° | - | - |
| 1777975386 | 18.33° C | 88% | 1014.3 hPa | 0 mm | 0.45 m/s, 93° | - | - |
| 1777975086 | 18.33° C | 87% | 1014.2 hPa | 0 mm | 0.45 m/s, 93° | - | - |
| 1777975039 | 18.33° C | 87% | 1014.2 hPa | 0 mm | 0.45 m/s, 93° | - | - |
| 1777974786 | 18.33° C | 87% | 1014.2 hPa | 0 mm | 0.45 m/s, 93° | - | - |
| 1777974486 | 18.33° C | 87% | 1014.1 hPa | 0 mm | 0.45 m/s, 93° | - | - |
| 1777974392 | 18.33° C | 87% | 1014.1 hPa | 0 mm | 0.89 m/s, 93° | - | - |
| 1777974186 | 18.33° C | 87% | 1014.1 hPa | 0 mm | 0.89 m/s, 93° | - | - |
| 1777973914 | 18.33° C | 87% | 1014 hPa | 0 mm | 0.45 m/s, 93° | - | - |
* Rain latest hour (hover to see other rain measurements)
** Current wind speed in m/s (hover to see current wind gust speed)